Location: Newark
(46.1364°N, 6.1331°E)
Time: 01:10:39
(UTC+00:00)

Envisat - Visible Passes

Search period start: 28 February 2020 00:00
Search period end: 09 March 2020 00:00
Orbit: 764 x 766 km, 98.1° (Epoch: 27 February)

Date Brightness Start Highest point End Pass type
(mag) Time Alt. Az. Time Alt. Az. Time Alt. Az.
28 Feb 5.9 05:11:46 10° NE 05:15:39 21° E 05:19:29 10° SE visible
28 Feb 5.1 18:07:42 10° SSW 18:12:12 31° W 18:16:43 10° NNW visible
01 Mar 4.9 05:36:40 10° NNE 05:41:20 36° E 05:45:59 10° SSE visible
01 Mar 6.0 18:34:23 10° SW 18:37:55 19° W 18:41:28 10° NW visible
02 Mar 6.2 05:00:54 10° NE 05:04:12 17° E 05:07:31 10° SE visible
02 Mar 4.7 17:56:06 10° SSW 18:00:49 39° W 18:05:35 10° NNW visible
03 Mar 6.6 19:02:38 10° W 19:03:45 11° W 19:04:52 10° WNW visible
04 Mar 5.4 05:25:33 10° NE 05:29:57 29° E 05:34:20 10° SSE visible
04 Mar 5.7 18:22:29 10° SW 18:26:30 23° W 18:30:32 10° NW visible
05 Mar 6.4 04:50:14 10° ENE 04:52:46 14° E 04:55:18 10° ESE visible
06 Mar 6.3 18:49:45 10° WSW 18:52:17 14° W 18:54:50 10° WNW visible
07 Mar 5.8 05:14:31 10° NE 05:18:33 23° E 05:22:34 10° SE visible
07 Mar 5.4 18:10:44 10° SSW 18:15:06 29° W 18:19:30 10° NW visible
08 Mar 6.7 04:40:12 10° ENE 04:41:18 11° E 04:42:24 10° E visible
